Track GLOBALSTAR M094 now! 10-day predictions GLOBALSTAR M094 is classified as:
1 39074U 13005C 22222.66969610 -.00000092 00000-0 66274-4 0 9996 2 39074 51.9956 113.2363 0000624 71.5589 288.5346 12.62268546440844